Year,Month,Day,Hour,Minute,Value (Times are PST for temperature in C)
2017,09,20,00,00,6.40
2017,09,20,00,01,6.30
2017,09,20,00,02,6.30
2017,09,20,00,03,6.30
2017,09,20,00,04,6.30
2017,09,20,00,05,6.30
2017,09,20,00,06,6.30
2017,09,20,00,07,6.40
2017,09,20,00,08,6.40
2017,09,20,00,09,6.40
2017,09,20,00,10,6.40
2017,09,20,00,11,6.40
2017,09,20,00,12,6.40
2017,09,20,00,13,6.40
2017,09,20,00,14,6.40
2017,09,20,00,15,6.30
2017,09,20,00,16,6.30
2017,09,20,00,17,6.30
2017,09,20,00,18,6.30
2017,09,20,00,19,6.30
2017,09,20,00,20,6.20
2017,09,20,00,21,6.20
2017,09,20,00,22,6.20
2017,09,20,00,23,6.20
2017,09,20,00,24,6.20
2017,09,20,00,25,6.10
2017,09,20,00,26,6.10
2017,09,20,00,27,6.10
2017,09,20,00,28,6.20
2017,09,20,00,29,6.20
2017,09,20,00,30,6.20
2017,09,20,00,31,6.20
2017,09,20,00,32,6.30
2017,09,20,00,33,6.30
2017,09,20,00,34,6.30
2017,09,20,00,35,6.30
2017,09,20,00,36,6.20
2017,09,20,00,37,6.20
2017,09,20,00,38,6.20
2017,09,20,00,39,6.10
2017,09,20,00,40,6.10
2017,09,20,00,41,6.00
2017,09,20,00,42,6.00
2017,09,20,00,43,6.00
2017,09,20,00,44,5.90
2017,09,20,00,45,5.90
2017,09,20,00,46,5.90
2017,09,20,00,47,5.90
2017,09,20,00,48,5.90
2017,09,20,00,49,5.90
2017,09,20,00,50,5.80
2017,09,20,00,51,5.80
2017,09,20,00,52,5.80
2017,09,20,00,53,5.80
2017,09,20,00,54,5.80
2017,09,20,00,55,5.90
2017,09,20,00,56,5.90
2017,09,20,00,57,5.90
2017,09,20,00,58,5.90
2017,09,20,00,59,5.90
2017,09,20,01,00,5.90
2017,09,20,01,01,5.90
2017,09,20,01,02,5.90
2017,09,20,01,03,6.00
2017,09,20,01,04,6.00
2017,09,20,01,05,6.00
2017,09,20,01,06,6.00
2017,09,20,01,07,6.00
2017,09,20,01,08,6.00
2017,09,20,01,09,6.00
2017,09,20,01,10,5.90
2017,09,20,01,11,5.90
2017,09,20,01,12,5.90
2017,09,20,01,13,5.90
2017,09,20,01,14,5.90
2017,09,20,01,15,5.90
2017,09,20,01,16,5.90
2017,09,20,01,17,5.90
2017,09,20,01,18,5.90
2017,09,20,01,19,5.90
2017,09,20,01,20,5.90
2017,09,20,01,21,5.90
2017,09,20,01,22,5.90
2017,09,20,01,23,6.00
2017,09,20,01,24,6.00
2017,09,20,01,25,6.00
2017,09,20,01,26,5.90
2017,09,20,01,27,5.90
2017,09,20,01,28,5.90
2017,09,20,01,29,5.90
2017,09,20,01,30,5.90
2017,09,20,01,31,5.90
2017,09,20,01,32,5.90
2017,09,20,01,33,5.80
2017,09,20,01,34,5.80
2017,09,20,01,35,5.80
2017,09,20,01,36,5.70
2017,09,20,01,37,5.70
2017,09,20,01,38,5.70
2017,09,20,01,39,5.70
2017,09,20,01,40,5.60
2017,09,20,01,41,5.60
2017,09,20,01,42,5.60
2017,09,20,01,43,5.60
2017,09,20,01,44,5.70
2017,09,20,01,45,5.70
2017,09,20,01,46,5.70
2017,09,20,01,47,5.70
2017,09,20,01,48,5.80
2017,09,20,01,49,5.80
2017,09,20,01,50,5.80
2017,09,20,01,51,5.80
2017,09,20,01,52,5.80
2017,09,20,01,53,5.70
2017,09,20,01,54,5.70
2017,09,20,01,55,5.70
2017,09,20,01,56,5.60
2017,09,20,01,57,5.60
2017,09,20,01,58,5.60
2017,09,20,01,59,5.50
2017,09,20,02,00,5.50
2017,09,20,02,01,5.40
2017,09,20,02,02,5.40
2017,09,20,02,03,5.40
2017,09,20,02,04,5.40
2017,09,20,02,05,5.40
2017,09,20,02,06,5.40
2017,09,20,02,07,5.30
2017,09,20,02,08,5.40
2017,09,20,02,09,5.40
2017,09,20,02,10,5.40
2017,09,20,02,11,5.40
2017,09,20,02,12,5.40
2017,09,20,02,13,5.40
2017,09,20,02,14,5.40
2017,09,20,02,15,5.40
2017,09,20,02,16,5.40
2017,09,20,02,17,5.50
2017,09,20,02,18,5.50
2017,09,20,02,19,5.50
2017,09,20,02,20,5.50
2017,09,20,02,21,5.50
2017,09,20,02,22,5.50
2017,09,20,02,23,5.50
2017,09,20,02,24,5.60
2017,09,20,02,25,5.60
2017,09,20,02,26,5.60
2017,09,20,02,27,5.50
2017,09,20,02,28,5.50
2017,09,20,02,29,5.50
2017,09,20,02,30,5.50
2017,09,20,02,31,5.40
2017,09,20,02,32,5.40
2017,09,20,02,33,5.40
2017,09,20,02,34,5.40
2017,09,20,02,35,5.40
2017,09,20,02,36,5.40
2017,09,20,02,37,5.40
2017,09,20,02,38,5.50
2017,09,20,02,39,5.50
2017,09,20,02,40,5.50
2017,09,20,02,41,5.50
2017,09,20,02,42,5.60
2017,09,20,02,43,5.60
2017,09,20,02,44,5.60
2017,09,20,02,45,5.60
2017,09,20,02,46,5.60
2017,09,20,02,47,5.60
2017,09,20,02,48,5.50
2017,09,20,02,49,5.50
2017,09,20,02,50,5.50
2017,09,20,02,51,5.50
2017,09,20,02,52,5.50
2017,09,20,02,53,5.40
2017,09,20,02,54,5.40
2017,09,20,02,55,5.40
2017,09,20,02,56,5.40
2017,09,20,02,57,5.40
2017,09,20,02,58,5.40
2017,09,20,02,59,5.40
2017,09,20,03,00,5.50
2017,09,20,03,01,5.50
2017,09,20,03,02,5.50
2017,09,20,03,06,5.70
2017,09,20,03,07,5.70
2017,09,20,03,08,5.70
2017,09,20,03,09,5.70
2017,09,20,03,10,5.70
2017,09,20,03,11,5.80
2017,09,20,03,12,5.80
2017,09,20,03,13,5.80
2017,09,20,03,14,5.90
2017,09,20,03,15,5.90
2017,09,20,03,16,5.90
2017,09,20,03,17,6.00
2017,09,20,03,18,6.00
2017,09,20,03,19,6.00
2017,09,20,03,20,6.10
2017,09,20,03,21,6.10
2017,09,20,03,22,6.10
2017,09,20,03,23,6.10
2017,09,20,03,24,6.10
2017,09,20,03,25,6.10
2017,09,20,03,26,6.10
2017,09,20,03,27,6.10
2017,09,20,03,28,6.10
2017,09,20,03,29,6.20
2017,09,20,03,30,6.20
2017,09,20,03,31,6.20
2017,09,20,03,32,6.20
2017,09,20,03,33,6.30
2017,09,20,03,34,6.30
2017,09,20,03,35,6.30
2017,09,20,03,36,6.30
2017,09,20,03,37,6.30
2017,09,20,03,38,6.30
2017,09,20,03,39,6.30
2017,09,20,03,40,6.30
2017,09,20,03,41,6.30
2017,09,20,03,42,6.40
2017,09,20,03,43,6.40
2017,09,20,03,44,6.40
2017,09,20,03,45,6.40
2017,09,20,03,46,6.40
2017,09,20,03,47,6.40
2017,09,20,03,48,6.40
2017,09,20,03,49,6.40
2017,09,20,03,50,6.40
2017,09,20,03,51,6.40
2017,09,20,03,52,6.50
2017,09,20,03,53,6.50
2017,09,20,03,54,6.50
2017,09,20,03,55,6.50
2017,09,20,03,56,6.50
2017,09,20,03,57,6.60
2017,09,20,03,58,6.60
2017,09,20,03,59,6.60
2017,09,20,04,00,6.60
2017,09,20,04,01,6.60
2017,09,20,04,02,6.60
2017,09,20,04,03,6.60
2017,09,20,04,04,6.60
2017,09,20,04,05,6.60
2017,09,20,04,06,6.70
2017,09,20,04,07,6.70
2017,09,20,04,08,6.70
2017,09,20,04,09,6.70
2017,09,20,04,10,6.70
2017,09,20,04,11,6.70
2017,09,20,04,12,6.70
2017,09,20,04,13,6.70
2017,09,20,04,14,6.80
2017,09,20,04,15,6.80
2017,09,20,04,16,6.80
2017,09,20,04,17,6.80
2017,09,20,04,18,6.80
2017,09,20,04,19,6.80
2017,09,20,04,20,6.80
2017,09,20,04,21,6.90
2017,09,20,04,22,6.90
2017,09,20,04,23,6.90
2017,09,20,04,24,6.90
2017,09,20,04,25,6.90
2017,09,20,04,26,6.90
2017,09,20,04,27,7.00
2017,09,20,04,28,7.00
2017,09,20,04,29,7.00
2017,09,20,04,30,7.00
2017,09,20,04,31,7.10
2017,09,20,04,32,7.10
2017,09,20,04,33,7.10
2017,09,20,04,34,7.20
2017,09,20,04,35,7.20
2017,09,20,04,36,7.20
2017,09,20,04,37,7.20
2017,09,20,04,38,7.30
2017,09,20,04,39,7.30
2017,09,20,04,40,7.30
2017,09,20,04,41,7.30
2017,09,20,04,42,7.30
2017,09,20,04,43,7.30
2017,09,20,04,44,7.30
2017,09,20,04,45,7.40
2017,09,20,04,46,7.40
2017,09,20,04,47,7.40
2017,09,20,04,48,7.40
2017,09,20,04,49,7.40
2017,09,20,04,50,7.40
2017,09,20,04,51,7.40
2017,09,20,04,52,7.50
2017,09,20,04,53,7.50
2017,09,20,04,54,7.50
2017,09,20,04,55,7.50
2017,09,20,04,56,7.50
2017,09,20,04,57,7.50
2017,09,20,04,58,7.50
2017,09,20,04,59,7.60
2017,09,20,05,00,7.60
2017,09,20,05,01,7.60
2017,09,20,05,02,7.60
2017,09,20,05,03,7.60
2017,09,20,05,04,7.60
2017,09,20,05,05,7.60
2017,09,20,05,06,7.60
2017,09,20,05,07,7.60
2017,09,20,05,08,7.60
2017,09,20,05,09,7.60
2017,09,20,05,10,7.60
2017,09,20,05,11,7.60
2017,09,20,05,12,7.70
2017,09,20,05,13,7.70
2017,09,20,05,14,7.70
2017,09,20,05,15,7.70
2017,09,20,05,16,7.70
2017,09,20,05,17,7.70
2017,09,20,05,18,7.70
2017,09,20,05,19,7.70
2017,09,20,05,20,7.70
2017,09,20,05,21,7.70
2017,09,20,05,22,7.70
2017,09,20,05,23,7.80
2017,09,20,05,24,7.80
2017,09,20,05,25,7.80
2017,09,20,05,26,7.80
2017,09,20,05,27,7.80
2017,09,20,05,28,7.80
2017,09,20,05,29,7.80
2017,09,20,05,30,7.80
2017,09,20,05,31,7.80
2017,09,20,05,32,7.80
2017,09,20,05,33,7.80
2017,09,20,05,34,7.80
2017,09,20,05,35,7.80
2017,09,20,05,36,7.80
2017,09,20,05,37,7.80
2017,09,20,05,38,7.80
2017,09,20,05,39,7.80
2017,09,20,05,40,7.90
2017,09,20,05,41,7.90
2017,09,20,05,42,7.90
2017,09,20,05,43,7.90
2017,09,20,05,44,7.90
2017,09,20,05,45,8.00
2017,09,20,05,46,8.00
2017,09,20,05,47,8.00
2017,09,20,05,48,8.00
2017,09,20,05,49,8.10
2017,09,20,05,50,8.10
2017,09,20,05,51,8.10
2017,09,20,05,52,8.10
2017,09,20,05,53,8.10
2017,09,20,05,54,8.10
2017,09,20,05,55,8.10
2017,09,20,05,56,8.20
2017,09,20,05,57,8.20
2017,09,20,05,58,8.20
2017,09,20,05,59,8.20
2017,09,20,06,00,8.20
2017,09,20,06,01,8.20
2017,09,20,06,02,8.20
2017,09,20,06,03,8.20
2017,09,20,06,04,8.30
2017,09,20,06,05,8.30
2017,09,20,06,06,8.30
2017,09,20,06,07,8.30
2017,09,20,06,08,8.30
2017,09,20,06,09,8.30
2017,09,20,06,10,8.30
2017,09,20,06,11,8.30
2017,09,20,06,12,8.30
2017,09,20,06,13,8.30
2017,09,20,06,14,8.30
2017,09,20,06,15,8.40
2017,09,20,06,16,8.40
2017,09,20,06,17,8.40
2017,09,20,06,18,8.40
2017,09,20,06,19,8.40
2017,09,20,06,20,8.40
2017,09,20,06,21,8.40
2017,09,20,06,22,8.40
2017,09,20,06,23,8.40
2017,09,20,06,24,8.40
2017,09,20,06,25,8.40
2017,09,20,06,26,8.40
2017,09,20,06,27,8.40
2017,09,20,06,28,8.40
2017,09,20,06,29,8.40
2017,09,20,06,30,8.40
2017,09,20,06,31,8.40
2017,09,20,06,32,8.40
2017,09,20,06,33,8.40
2017,09,20,06,34,8.40
2017,09,20,06,35,8.40
2017,09,20,06,36,8.40
2017,09,20,06,37,8.40
2017,09,20,06,38,8.40
2017,09,20,06,39,8.40
2017,09,20,06,40,8.50
2017,09,20,06,41,8.50
2017,09,20,06,42,8.50
2017,09,20,06,43,8.50
2017,09,20,06,44,8.50
2017,09,20,06,45,8.50
2017,09,20,06,46,8.50
2017,09,20,06,47,8.50
2017,09,20,06,48,8.50
2017,09,20,06,49,8.50
2017,09,20,06,50,8.50
2017,09,20,06,51,8.50
2017,09,20,06,52,8.50
2017,09,20,06,53,8.50
2017,09,20,06,54,8.60
2017,09,20,06,55,8.60
2017,09,20,06,56,8.60
2017,09,20,06,57,8.60
2017,09,20,06,58,8.60
2017,09,20,06,59,8.60
2017,09,20,07,00,8.60
2017,09,20,07,01,8.60
2017,09,20,07,02,8.60
2017,09,20,07,03,8.60
2017,09,20,07,04,8.60
2017,09,20,07,05,8.60
2017,09,20,07,06,8.60
2017,09,20,07,07,8.60
2017,09,20,07,08,8.60
2017,09,20,07,09,8.60
2017,09,20,07,10,8.60
2017,09,20,07,11,8.60
2017,09,20,07,12,8.60
2017,09,20,07,13,8.60
2017,09,20,07,14,8.60
2017,09,20,07,15,8.60
2017,09,20,07,16,8.60
2017,09,20,07,17,8.60
2017,09,20,07,18,8.60
2017,09,20,07,19,8.60
2017,09,20,07,20,8.60
2017,09,20,07,21,8.60
2017,09,20,07,22,8.60
2017,09,20,07,23,8.60
2017,09,20,07,24,8.60
2017,09,20,07,25,8.60
2017,09,20,07,26,8.60
2017,09,20,07,27,8.60
2017,09,20,07,28,8.60
2017,09,20,07,29,8.60
2017,09,20,07,30,8.60
2017,09,20,07,31,8.60
2017,09,20,07,32,8.60
2017,09,20,07,33,8.60
2017,09,20,07,34,8.60
2017,09,20,07,35,8.60
2017,09,20,07,36,8.60
2017,09,20,07,37,8.60
2017,09,20,07,38,8.60
2017,09,20,07,39,8.60
2017,09,20,07,40,8.60
2017,09,20,07,41,8.60
2017,09,20,07,42,8.60
2017,09,20,07,43,8.60
2017,09,20,07,44,8.60
2017,09,20,07,45,8.60
2017,09,20,07,46,8.70
2017,09,20,07,47,8.70
2017,09,20,07,48,8.70
2017,09,20,07,49,8.70
2017,09,20,07,50,8.70
2017,09,20,07,51,8.70
2017,09,20,07,52,8.70
2017,09,20,07,53,8.70
2017,09,20,07,54,8.70
2017,09,20,07,55,8.70
2017,09,20,07,56,8.70
2017,09,20,07,57,8.70
2017,09,20,07,58,8.70
2017,09,20,07,59,8.70
2017,09,20,08,00,8.70
2017,09,20,08,01,8.70
2017,09,20,08,02,8.70
2017,09,20,08,03,8.70
2017,09,20,08,04,8.70
2017,09,20,08,05,8.80
2017,09,20,08,06,8.80
2017,09,20,08,07,8.80
2017,09,20,08,08,8.80
2017,09,20,08,09,8.80
2017,09,20,08,10,8.80
2017,09,20,08,11,8.80
2017,09,20,08,12,8.80
2017,09,20,08,13,8.80
2017,09,20,08,14,8.80
2017,09,20,08,15,8.80
2017,09,20,08,16,8.80
2017,09,20,08,17,8.80
2017,09,20,08,18,8.80
2017,09,20,08,19,8.80
2017,09,20,08,20,8.80
2017,09,20,08,21,8.80
2017,09,20,08,22,8.80
2017,09,20,08,23,8.80
2017,09,20,08,24,8.80
2017,09,20,08,25,8.80
2017,09,20,08,26,8.80
2017,09,20,08,27,8.80
2017,09,20,08,28,8.80
2017,09,20,08,29,8.80
2017,09,20,08,30,8.80
2017,09,20,08,31,8.80
2017,09,20,08,32,8.80
2017,09,20,08,33,8.80
2017,09,20,08,34,8.80
2017,09,20,08,35,8.80
2017,09,20,08,36,8.80
2017,09,20,08,37,8.80
2017,09,20,08,38,8.80
2017,09,20,08,39,8.80
2017,09,20,08,40,8.80
2017,09,20,08,41,8.80
2017,09,20,08,42,8.80
2017,09,20,08,43,8.80
2017,09,20,08,44,8.80
2017,09,20,08,45,8.80
2017,09,20,08,46,8.80
2017,09,20,08,47,8.80
2017,09,20,08,48,8.80
2017,09,20,08,49,8.80
2017,09,20,08,50,8.80
2017,09,20,08,51,8.80
2017,09,20,08,52,8.80
2017,09,20,08,53,8.80
2017,09,20,08,54,8.80
2017,09,20,08,55,8.80
2017,09,20,08,56,8.80
2017,09,20,08,57,8.80
2017,09,20,08,58,8.80
2017,09,20,08,59,8.80
2017,09,20,09,00,8.80
2017,09,20,09,01,8.80
2017,09,20,09,02,8.80
2017,09,20,09,03,8.80
2017,09,20,09,04,8.80
2017,09,20,09,05,8.80
2017,09,20,09,06,8.80
2017,09,20,09,07,8.80
2017,09,20,09,08,8.80
2017,09,20,09,09,8.80
2017,09,20,09,10,8.80
2017,09,20,09,11,8.80
2017,09,20,09,12,8.80
2017,09,20,09,13,8.80
2017,09,20,09,14,8.80
2017,09,20,09,15,8.80
2017,09,20,09,16,8.80
2017,09,20,09,17,8.80
2017,09,20,09,18,8.80
2017,09,20,09,19,8.80
2017,09,20,09,20,8.80
2017,09,20,09,21,8.80
2017,09,20,09,22,8.90
2017,09,20,09,23,8.90
2017,09,20,09,24,8.90
2017,09,20,09,25,8.90
2017,09,20,09,26,8.90
2017,09,20,09,27,8.90
2017,09,20,09,28,8.90
2017,09,20,09,29,8.90
2017,09,20,09,30,8.90
2017,09,20,09,31,8.90
2017,09,20,09,32,8.90
2017,09,20,09,33,8.90
2017,09,20,09,34,8.90
2017,09,20,09,35,8.90
2017,09,20,09,36,8.90
2017,09,20,09,37,8.90
2017,09,20,09,38,9.00
2017,09,20,09,39,9.00
2017,09,20,09,40,9.10
2017,09,20,09,41,9.10
2017,09,20,09,42,9.10
2017,09,20,09,43,9.10
2017,09,20,09,44,9.10
2017,09,20,09,45,9.10
2017,09,20,09,46,9.10
2017,09,20,09,47,9.10
2017,09,20,09,48,9.10
2017,09,20,09,49,9.10
2017,09,20,09,50,9.20
2017,09,20,09,51,9.20
2017,09,20,09,52,9.20
2017,09,20,09,53,9.30
2017,09,20,09,54,9.30
2017,09,20,09,55,9.30
2017,09,20,09,56,9.30
2017,09,20,09,57,9.30
2017,09,20,09,58,9.30
2017,09,20,09,59,9.30
2017,09,20,10,00,9.30
2017,09,20,10,01,9.30
2017,09,20,10,02,9.30
2017,09,20,10,03,9.40
2017,09,20,10,04,9.40
2017,09,20,10,05,9.50
2017,09,20,10,06,9.60
2017,09,20,10,07,9.70
2017,09,20,10,08,9.70
2017,09,20,10,09,9.80
2017,09,20,10,10,9.80
2017,09,20,10,11,9.80
2017,09,20,10,12,9.90
2017,09,20,10,13,10.00
2017,09,20,10,14,10.10
2017,09,20,10,15,10.20
2017,09,20,10,16,10.20
2017,09,20,10,17,10.20
2017,09,20,10,18,10.20
2017,09,20,10,19,10.30
2017,09,20,10,20,10.30
2017,09,20,10,21,10.30
2017,09,20,10,22,10.30
2017,09,20,10,23,10.30
2017,09,20,10,24,10.30
2017,09,20,10,25,10.30
2017,09,20,10,26,10.30
2017,09,20,10,27,10.30
2017,09,20,10,28,10.30
2017,09,20,10,29,10.30
2017,09,20,10,30,10.30
2017,09,20,10,31,10.30
2017,09,20,10,32,10.30
2017,09,20,10,33,10.30
2017,09,20,10,34,10.30
2017,09,20,10,35,10.30
2017,09,20,10,36,10.30
2017,09,20,10,37,10.30
2017,09,20,10,38,10.30
2017,09,20,10,39,10.30
2017,09,20,10,40,10.30
2017,09,20,10,41,10.30
2017,09,20,10,42,10.30
2017,09,20,10,43,10.40
2017,09,20,10,44,10.40
2017,09,20,10,45,10.40
2017,09,20,10,46,10.40
2017,09,20,10,47,10.40
2017,09,20,10,48,10.40
2017,09,20,10,49,10.30
2017,09,20,10,50,10.30
2017,09,20,10,51,10.30
2017,09,20,10,52,10.30
2017,09,20,10,53,10.30
2017,09,20,10,54,10.30
2017,09,20,10,55,10.30
2017,09,20,10,56,10.30
2017,09,20,10,57,10.30
2017,09,20,10,58,10.40
2017,09,20,10,59,10.40
2017,09,20,11,00,10.40
2017,09,20,11,01,10.40
2017,09,20,11,02,10.40
2017,09,20,11,03,10.50
2017,09,20,11,04,10.50
2017,09,20,11,05,10.50
2017,09,20,11,06,10.60
2017,09,20,11,07,10.60
2017,09,20,11,08,10.70
2017,09,20,11,09,10.70
2017,09,20,11,10,10.80
2017,09,20,11,11,10.80
2017,09,20,11,12,10.80
2017,09,20,11,13,10.90
2017,09,20,11,14,10.90
2017,09,20,11,15,10.90
2017,09,20,11,16,11.00
2017,09,20,11,17,11.10
2017,09,20,11,18,11.10
2017,09,20,11,19,11.20
2017,09,20,11,20,11.20
2017,09,20,11,21,11.20
2017,09,20,11,22,11.30
2017,09,20,11,23,11.30
2017,09,20,11,24,11.30
2017,09,20,11,25,11.40
2017,09,20,11,26,11.40
2017,09,20,11,27,11.50
2017,09,20,11,28,11.50
2017,09,20,11,29,11.70
2017,09,20,11,30,11.80
2017,09,20,11,31,11.90
2017,09,20,11,32,12.00
2017,09,20,11,33,12.00
2017,09,20,11,34,12.10
2017,09,20,11,35,12.00
2017,09,20,11,36,12.10
2017,09,20,11,37,12.10
2017,09,20,11,38,12.10
2017,09,20,11,39,12.10
2017,09,20,11,40,12.10
2017,09,20,11,41,12.00
2017,09,20,11,42,11.90
2017,09,20,11,43,11.90
2017,09,20,11,44,11.90
2017,09,20,11,45,11.90
2017,09,20,11,46,11.90
2017,09,20,11,47,11.80
2017,09,20,11,48,11.80
2017,09,20,11,49,11.80
2017,09,20,11,50,11.90
2017,09,20,11,51,11.90
2017,09,20,11,52,11.90
2017,09,20,11,53,12.00
2017,09,20,11,54,12.10
2017,09,20,11,55,12.10
2017,09,20,11,56,12.10
2017,09,20,11,57,12.20
2017,09,20,11,58,12.20
2017,09,20,11,59,12.20
2017,09,20,12,00,12.30
2017,09,20,12,01,12.30
2017,09,20,12,02,12.30
2017,09,20,12,03,12.30
2017,09,20,12,04,12.30
2017,09,20,12,05,12.40
2017,09,20,12,06,12.40
2017,09,20,12,07,12.40
2017,09,20,12,08,12.40
2017,09,20,12,09,12.40
2017,09,20,12,10,12.40
2017,09,20,12,11,12.50
2017,09,20,12,12,12.60
2017,09,20,12,13,12.70
2017,09,20,12,14,12.80
2017,09,20,12,15,12.90
2017,09,20,12,16,12.90
2017,09,20,12,17,12.90
2017,09,20,12,18,13.00
2017,09,20,12,19,13.00
2017,09,20,12,20,13.10
2017,09,20,12,21,13.00
2017,09,20,12,22,13.00
2017,09,20,12,23,13.00
2017,09,20,12,24,13.10
2017,09,20,12,25,13.10
2017,09,20,12,26,13.20
2017,09,20,12,27,13.30
2017,09,20,12,28,13.40
2017,09,20,12,29,13.50
2017,09,20,12,30,13.60
2017,09,20,12,31,13.60
2017,09,20,12,32,13.60
2017,09,20,12,33,13.60
2017,09,20,12,34,13.70
2017,09,20,12,35,13.80
2017,09,20,12,36,13.80
2017,09,20,12,37,13.80
2017,09,20,12,38,13.80
2017,09,20,12,39,13.80
2017,09,20,12,40,13.80
2017,09,20,12,41,13.80
2017,09,20,12,42,13.90
2017,09,20,12,43,13.90
2017,09,20,12,44,13.90
2017,09,20,12,45,14.00
2017,09,20,12,46,14.10
2017,09,20,12,47,14.20
2017,09,20,12,48,14.30
2017,09,20,12,49,14.30
2017,09,20,12,50,14.40
2017,09,20,12,51,14.40
2017,09,20,12,52,14.50
2017,09,20,12,53,14.60
2017,09,20,12,54,14.70
2017,09,20,12,55,14.70
2017,09,20,12,56,14.70
2017,09,20,12,57,14.70
2017,09,20,12,58,14.80
2017,09,20,12,59,14.90
2017,09,20,13,00,14.90
2017,09,20,13,01,15.00
2017,09,20,13,02,14.90
2017,09,20,13,03,15.00
2017,09,20,13,04,14.90
2017,09,20,13,05,14.90
2017,09,20,13,06,14.90
2017,09,20,13,07,14.90
2017,09,20,13,08,14.80
2017,09,20,13,09,14.80
2017,09,20,13,10,14.80
2017,09,20,13,11,14.70
2017,09,20,13,12,14.80
2017,09,20,13,13,14.80
2017,09,20,13,14,14.70
2017,09,20,13,15,14.70
2017,09,20,13,16,14.80
2017,09,20,13,17,14.80
2017,09,20,13,18,14.90
2017,09,20,13,19,14.90
2017,09,20,13,20,14.80
2017,09,20,13,21,14.80
2017,09,20,13,22,14.80
2017,09,20,13,23,14.80
2017,09,20,13,24,14.80
2017,09,20,13,25,14.90
2017,09,20,13,26,15.00
2017,09,20,13,27,15.10
2017,09,20,13,28,15.20
2017,09,20,13,29,15.30
2017,09,20,13,30,15.40
2017,09,20,13,31,15.40
2017,09,20,13,32,15.40
2017,09,20,13,33,15.40
2017,09,20,13,34,15.40
2017,09,20,13,35,15.30
2017,09,20,13,36,15.30
2017,09,20,13,37,15.30
2017,09,20,13,38,15.20
2017,09,20,13,39,15.10
2017,09,20,13,40,15.10
2017,09,20,13,41,15.10
2017,09,20,13,42,15.10
2017,09,20,13,43,15.10
2017,09,20,13,44,15.10
2017,09,20,13,45,15.20
2017,09,20,13,46,15.20
2017,09,20,13,47,15.30
2017,09,20,13,48,15.30
2017,09,20,13,49,15.40
2017,09,20,13,50,15.40
2017,09,20,13,51,15.40
2017,09,20,13,52,15.50
2017,09,20,13,53,15.60
2017,09,20,13,54,15.60
2017,09,20,13,55,15.50
2017,09,20,13,56,15.50
2017,09,20,13,57,15.50
2017,09,20,13,58,15.40
2017,09,20,13,59,15.40
2017,09,20,14,00,15.40
2017,09,20,14,01,15.40
2017,09,20,14,02,15.40
2017,09,20,14,03,15.40
2017,09,20,14,04,15.50
2017,09,20,14,05,15.50
2017,09,20,14,06,15.60
2017,09,20,14,07,15.60
2017,09,20,14,08,15.70
2017,09,20,14,09,15.70
2017,09,20,14,10,15.70
2017,09,20,14,11,15.70
2017,09,20,14,12,15.70
2017,09,20,14,13,15.70
2017,09,20,14,14,15.70
2017,09,20,14,15,15.80
2017,09,20,14,16,15.80
2017,09,20,14,17,15.80
2017,09,20,14,18,15.80
2017,09,20,14,19,15.80
2017,09,20,14,20,15.70
2017,09,20,14,21,15.70
2017,09,20,14,22,15.70
2017,09,20,14,23,15.60
2017,09,20,14,24,15.60
2017,09,20,14,25,15.60
2017,09,20,14,26,15.60
2017,09,20,14,27,15.50
2017,09,20,14,28,15.50
2017,09,20,14,29,15.50
2017,09,20,14,30,15.50
2017,09,20,14,31,15.50
2017,09,20,14,32,15.60
2017,09,20,14,33,15.70
2017,09,20,14,34,15.70
2017,09,20,14,35,15.80
2017,09,20,14,36,15.80
2017,09,20,14,37,15.80
2017,09,20,14,38,15.80
2017,09,20,14,39,15.80
2017,09,20,14,40,15.70
2017,09,20,14,41,15.70
2017,09,20,14,42,15.70
2017,09,20,14,43,15.70
2017,09,20,14,44,15.70
2017,09,20,14,45,15.70
2017,09,20,14,46,15.70
2017,09,20,14,47,15.70
2017,09,20,14,48,15.70
2017,09,20,14,49,15.70
2017,09,20,14,50,15.70
2017,09,20,14,51,15.80
2017,09,20,14,52,15.80
2017,09,20,14,53,15.90
2017,09,20,14,54,15.90
2017,09,20,14,55,15.90
2017,09,20,14,56,15.90
2017,09,20,14,57,15.80
2017,09,20,14,58,15.80
2017,09,20,14,59,15.80
2017,09,20,15,00,15.70
2017,09,20,15,01,15.70
2017,09,20,15,02,15.70
2017,09,20,15,03,15.70
2017,09,20,15,04,15.70
2017,09,20,15,05,15.60
2017,09,20,15,06,15.60
2017,09,20,15,07,15.60
2017,09,20,15,08,15.70
2017,09,20,15,09,15.70
2017,09,20,15,10,15.70
2017,09,20,15,11,15.70
2017,09,20,15,12,15.60
2017,09,20,15,13,15.60
2017,09,20,15,14,15.50
2017,09,20,15,15,15.40
2017,09,20,15,16,15.30
2017,09,20,15,17,15.30
2017,09,20,15,18,15.30
2017,09,20,15,19,15.30
2017,09,20,15,20,15.30
2017,09,20,15,21,15.40
2017,09,20,15,22,15.40
2017,09,20,15,23,15.40
2017,09,20,15,24,15.50
2017,09,20,15,25,15.50
2017,09,20,15,26,15.60
2017,09,20,15,27,15.70
2017,09,20,15,28,15.80
2017,09,20,15,29,15.80
2017,09,20,15,30,15.80
2017,09,20,15,31,15.90
2017,09,20,15,32,15.90
2017,09,20,15,33,16.00
2017,09,20,15,34,16.00
2017,09,20,15,35,16.10
2017,09,20,15,36,16.10
2017,09,20,15,37,16.10
2017,09,20,15,38,16.10
2017,09,20,15,39,16.10
2017,09,20,15,40,16.00
2017,09,20,15,41,16.00
2017,09,20,15,42,16.00
2017,09,20,15,43,15.90
2017,09,20,15,44,15.90
2017,09,20,15,45,15.90
2017,09,20,15,46,15.90
2017,09,20,15,47,15.90
2017,09,20,15,48,15.90
2017,09,20,15,49,16.00
2017,09,20,15,50,16.10
2017,09,20,15,51,16.10
2017,09,20,15,52,16.10
2017,09,20,15,53,16.10
2017,09,20,15,54,16.20
2017,09,20,15,55,16.10
2017,09,20,15,56,16.10
2017,09,20,15,57,16.10
2017,09,20,15,58,16.10
2017,09,20,15,59,16.10
2017,09,20,16,00,16.10
2017,09,20,16,01,16.00
2017,09,20,16,02,16.00
2017,09,20,16,03,15.90
2017,09,20,16,04,15.90
2017,09,20,16,05,15.90
2017,09,20,16,06,16.00
2017,09,20,16,07,16.00
2017,09,20,16,08,16.00
2017,09,20,16,09,16.00
2017,09,20,16,10,16.00
2017,09,20,16,11,16.10
2017,09,20,16,12,16.10
2017,09,20,16,13,16.10
2017,09,20,16,14,16.10
2017,09,20,16,15,16.10
2017,09,20,16,16,16.10
2017,09,20,16,17,16.10
2017,09,20,16,18,16.10
2017,09,20,16,19,16.10
2017,09,20,16,20,16.10
2017,09,20,16,21,16.10
2017,09,20,16,22,16.20
2017,09,20,16,23,16.20
2017,09,20,16,24,16.10
2017,09,20,16,25,16.10
2017,09,20,16,26,16.00
2017,09,20,16,27,16.00
2017,09,20,16,28,16.00
2017,09,20,16,29,16.10
2017,09,20,16,30,16.20
2017,09,20,16,31,16.30
2017,09,20,16,32,16.30
2017,09,20,16,33,16.30
2017,09,20,16,34,16.30
2017,09,20,16,35,16.20
2017,09,20,16,36,16.20
2017,09,20,16,37,16.20
2017,09,20,16,38,16.20
2017,09,20,16,39,16.20
2017,09,20,16,40,16.10
2017,09,20,16,41,16.10
2017,09,20,16,42,16.00
2017,09,20,16,43,16.00
2017,09,20,16,44,15.90
2017,09,20,16,45,16.00
2017,09,20,16,46,16.00
2017,09,20,16,47,16.10
2017,09,20,16,48,16.20
2017,09,20,16,49,16.20
2017,09,20,16,50,16.20
2017,09,20,16,51,16.20
2017,09,20,16,52,16.20
2017,09,20,16,53,16.20
2017,09,20,16,54,16.20
2017,09,20,16,55,16.20
2017,09,20,16,56,16.20
2017,09,20,16,57,16.20
2017,09,20,16,58,16.20
2017,09,20,16,59,16.20
2017,09,20,17,00,16.20
2017,09,20,17,01,16.20
2017,09,20,17,02,16.20
2017,09,20,17,03,16.20
2017,09,20,17,04,16.30
2017,09,20,17,05,16.30
2017,09,20,17,06,16.30
2017,09,20,17,07,16.30
2017,09,20,17,08,16.30
2017,09,20,17,09,16.40
2017,09,20,17,10,16.40
2017,09,20,17,11,16.50
2017,09,20,17,12,16.60
2017,09,20,17,13,16.70
2017,09,20,17,14,16.70
2017,09,20,17,15,16.70
2017,09,20,17,16,16.60
2017,09,20,17,17,16.60
2017,09,20,17,18,16.50
2017,09,20,17,19,16.50
2017,09,20,17,20,16.40
2017,09,20,17,21,16.30
2017,09,20,17,22,16.30
2017,09,20,17,23,16.30
2017,09,20,17,24,16.30
2017,09,20,17,25,16.20
2017,09,20,17,26,16.10
2017,09,20,17,27,16.10
2017,09,20,17,28,16.10
2017,09,20,17,29,16.10
2017,09,20,17,30,16.10
2017,09,20,17,31,16.10
2017,09,20,17,32,16.00
2017,09,20,17,33,16.00
2017,09,20,17,34,15.90
2017,09,20,17,35,15.90
2017,09,20,17,36,15.90
2017,09,20,17,37,15.80
2017,09,20,17,38,15.80
2017,09,20,17,39,15.70
2017,09,20,17,40,15.70
2017,09,20,17,41,15.60
2017,09,20,17,42,15.60
2017,09,20,17,43,15.50
2017,09,20,17,44,15.50
2017,09,20,17,45,15.40
2017,09,20,17,46,15.40
2017,09,20,17,47,15.30
2017,09,20,17,48,15.30